Location: Starlight Observatory
(38.4029°N, 85.8936°W)
Time: 04:06:14
(UTC-04:00)

Amateur Radio Satellites - All Passes

Search period start: 02 July 2015 03:36
Search period end: 03 July 2015 03:36
Location: Starlight Observatory, 38.4029°N, 85.8936°W

Satellite Date Start Highest point End Downlink Frequencies (MHz)
Time Altitude Azimuth
JAS-2 02 Jul 03:46:42 03:50:22 16° 89° (E) 03:54:41 435.910
AO-7 02 Jul 04:06:34 04:10:04 14° 87° (E) 04:14:15 29.400- 29.500
AIST 1 02 Jul 04:10:40 04:15:02 71° 82° (E) 04:19:21
STARS 02 Jul 04:19:15 04:23:40 83° 256° (WSW) 04:28:06 437.465
Cosmos 2491 02 Jul 04:19:56 04:28:40 75° 266° (W) 04:37:19 435.465 / 435.565
PCSat 02 Jul 04:25:49 04:28:39 14° 255° (WSW) 04:31:09 145.827
RS-15 02 Jul 04:31:09 04:42:02 74° 304° (NW) 04:53:18 29.354- 29.394
Gurwin Techsat 1B 02 Jul 04:51:03 04:56:07 45° 289° (WNW) 05:01:08 435.225
YUBILEINY 02 Jul 04:52:19 05:01:01 85° 96° (E) 05:09:45 435.215
MOZHAYETS 4 02 Jul 04:53:36 04:57:41 34° 71° (ENE) 05:01:51
KKS-1 02 Jul 04:57:56 05:01:13 19° 267° (W) 05:04:23 437.445
ITAMSAT 1 02 Jul 05:14:09 05:18:39 29° 292° (WNW) 05:23:00 435.822/435.867
SO-50 02 Jul 05:19:57 05:21:08 11° 253° (WSW) 05:21:59 436.795
JAS-2 02 Jul 05:29:29 05:36:02 83° 284° (WNW) 05:43:24 435.910
HORYU 2 02 Jul 05:49:36 05:54:03 71° 285° (WNW) 05:58:29 437.375
AO-7 02 Jul 05:55:53 06:04:19 80° 106° (ESE) 06:12:41 29.400- 29.500
Cosmos 2491 02 Jul 06:20:58 06:24:13 12° 283° (WNW) 06:26:42 435.465 / 435.565
MOZHAYETS 4 02 Jul 06:31:30 06:35:01 21° 267° (W) 06:38:26
STRAND 1 02 Jul 06:39:41 06:42:33 16° 64° (ENE) 06:45:39 437.568
PRISM 02 Jul 06:41:06 06:42:13 11° 65° (ENE) 06:43:33 437.425
RS-15 02 Jul 06:48:13 06:56:57 25° 333° (NNW) 07:05:40 29.354- 29.394
CUBESAT XI-V 02 Jul 06:49:04 06:53:34 47° 73° (ENE) 06:58:07 437.345
YUBILEINY 02 Jul 06:53:10 06:59:09 19° 297° (WNW) 07:04:41 435.215
Cosmos 2504 02 Jul 07:05:43 07:12:55 69° 94° (E) 07:20:02 435.465 / 435.565
JAS-2 02 Jul 07:17:04 07:20:31 14° 298° (WNW) 07:23:44 435.910
CUTE-I 02 Jul 07:28:44 07:33:36 35° 96° (E) 07:38:29 437.470
AO-7 02 Jul 07:50:04 07:56:20 23° 304° (WNW) 08:02:17 29.400- 29.500
O/OREOS (USA 219) 02 Jul 07:52:50 07:55:10 15° 101° (E) 07:57:42 437.305
BEESAT 3 02 Jul 07:55:13 07:57:47 17° 111° (ESE) 08:00:30 437.485
Cubesat XI-IV 02 Jul 08:01:45 08:07:08 73° 102° (ESE) 08:12:30 437.490
BEESAT 2 02 Jul 08:03:40 08:06:11 16° 111° (ESE) 08:08:50 435.950
DANDE 02 Jul 08:04:03 08:08:03 16° 91° (E) 08:12:00 436.750
PRISM 02 Jul 08:13:04 08:17:11 61° 259° (W) 08:21:20 437.425
STRAND 1 02 Jul 08:16:12 08:21:17 63° 259° (WSW) 08:26:25 437.568
CUBESAT XI-V 02 Jul 08:28:20 08:31:19 16° 270° (W) 08:34:06 437.345
VERMONT LUNAR 02 Jul 08:36:53 08:38:52 16° 148° (SSE) 08:40:53 437.305
AUBIESAT-1 02 Jul 08:57:31 09:00:32 35° 68° (ENE) 09:03:41 437.475
CUSAT 1 02 Jul 08:58:37 09:05:32 60° 97° (E) 09:10:54 437.405
Cosmos 2504 02 Jul 09:02:06 09:07:07 19° 294° (WNW) 09:11:47 435.465 / 435.565
AIST 2 02 Jul 09:04:15 09:07:10 19° 111° (ESE) 09:10:13 435.215
RS-15 02 Jul 09:08:14 09:15:06 17° 8° (N) 09:22:18 29.354- 29.394
HO-68 02 Jul 09:08:23 09:13:04 19° 90° (E) 09:18:06 435.675
CUTE-I 02 Jul 09:09:00 09:13:35 28° 292° (WNW) 09:18:01 437.470
M-CUBED/EXP-1 PRIME 02 Jul 09:29:03 09:32:18 62° 254° (WSW) 09:35:38 437.505
GONETS M04 02 Jul 09:29:20 09:36:48 34° 86° (E) 09:44:28
O/OREOS (USA 219) 02 Jul 09:29:55 09:34:13 46° 295° (WNW) 09:38:32 437.305
BEESAT 3 02 Jul 09:31:37 09:35:28 39° 306° (NW) 09:39:21 437.485
ISS 02 Jul 09:33:18 09:36:22 42° 136° (SE) 09:39:28 145.825
GOMX 1 02 Jul 09:37:27 09:41:26 40° 98° (E) 09:45:21 467.674
BEESAT 2 02 Jul 09:40:02 09:43:56 41° 306° (NW) 09:47:53 435.950
DANDE 02 Jul 09:43:18 09:51:05 81° 279° (W) 09:57:09 436.750
Cubesat XI-IV 02 Jul 09:43:45 09:46:41 14° 297° (WNW) 09:49:21 437.490
SEEDS 02 Jul 09:45:36 09:48:54 22° 94° (E) 09:52:18 437.485
BRITE-PL 02 Jul 09:48:36 09:53:00 82° 281° (W) 09:57:10 437.365/2234.400
PHONESAT 2.4 02 Jul 09:54:26 09:56:11 14° 146° (SE) 09:58:01 2401.200-2431.200
CINEMA 3 02 Jul 10:02:07 10:05:09 20° 94° (E) 10:08:20 145.822/145.860
AAUSAT CUBESAT 2 02 Jul 10:03:15 10:06:37 23° 94° (E) 10:10:03 437.432
VERMONT LUNAR 02 Jul 10:12:21 10:15:28 74° 164° (SSE) 10:18:37 437.305
COMPASS 1 02 Jul 10:26:31 10:30:39 53° 99° (E) 10:34:47 437.405
CUTE 1.7 + AOD 2 02 Jul 10:28:04 10:32:22 89° 102° (ESE) 10:36:39 437.475
UWE-3 02 Jul 10:28:26 10:30:43 15° 91° (E) 10:33:14 435.000/436.395/437.385
CANX-2 02 Jul 10:31:02 10:35:19 76° 284° (WNW) 10:39:36 2200.000
ANTELSAT 02 Jul 10:33:37 10:36:32 19° 68° (ENE) 10:39:33 437.575/2403.000
DOVE 4 02 Jul 10:34:00 10:38:09 71° 284° (WNW) 10:42:16 437.250
AUBIESAT-1 02 Jul 10:35:18 10:35:36 10° 265° (W) 10:35:42 437.475
DELFI C3 02 Jul 10:37:13 10:39:48 17° 92° (E) 10:42:31 145.870
AIST 2 02 Jul 10:41:29 10:45:29 39° 307° (NW) 10:49:31 435.215
CUSAT 1 02 Jul 10:43:31 10:48:14 19° 287° (WNW) 10:52:02 437.405
TIGRISAT 02 Jul 10:46:34 10:50:01 24° 70° (ENE) 10:53:31 435.000
HO-68 02 Jul 10:54:24 11:01:32 72° 288° (WNW) 11:08:39 435.675
CUBEBUG 2 02 Jul 11:06:56 11:11:02 53° 100° (E) 11:15:13 437.445
QB50P1 02 Jul 11:07:00 11:09:49 18° 68° (ENE) 11:12:44 145.935-145.965
DX 1 02 Jul 11:09:36 11:10:34 11° 89° (E) 11:11:49 434.975-435.025
ISS 02 Jul 11:10:14 11:12:53 22° 333° (NNW) 11:15:32 145.825
GOMX 1 02 Jul 11:16:48 11:19:17 15° 293° (WNW) 11:21:34 467.674
ZACube-1 02 Jul 11:20:25 11:24:28 45° 99° (E) 11:28:35 437.345
SEEDS 02 Jul 11:21:02 11:24:43 28° 289° (WNW) 11:28:19 437.485
NANOSAT C BR1 02 Jul 11:21:31 11:24:58 25° 70° (ENE) 11:28:29 145.865
RS-15 02 Jul 11:21:55 11:32:21 37° 40° (NE) 11:43:23 29.354- 29.394
UNISAT 6 02 Jul 11:24:15 11:28:32 70° 76° (ENE) 11:32:48 437.425
GONETS M04 02 Jul 11:24:55 11:33:24 49° 284° (WNW) 11:41:48
Cosmos 2499 02 Jul 11:26:14 11:32:25 35° 89° (E) 11:38:45 435.465 / 435.565
DUCHIFAT 1 02 Jul 11:29:07 11:32:47 30° 71° (ENE) 11:36:30 145.980
PHONESAT 2.4 02 Jul 11:30:24 11:33:48 61° 159° (SSE) 11:37:13 2401.200-2431.200
POLYITAN 1 02 Jul 11:30:47 11:34:35 33° 71° (ENE) 11:38:24 437.675
DANDE 02 Jul 11:31:42 11:34:45 13° 293° (WNW) 11:37:08 436.750
UKube-1 02 Jul 11:32:38 11:35:41 19° 93° (E) 11:38:50 .
Oscar 11 02 Jul 11:34:54 11:39:13 68° 285° (WNW) 11:43:32 145.826/435.025
AISAT 02 Jul 11:35:54 11:37:38 12° 90° (E) 11:39:36 437.250
AAUSAT CUBESAT 2 02 Jul 11:38:38 11:42:11 26° 289° (WNW) 11:45:40 437.432
CINEMA 3 02 Jul 11:38:48 11:42:25 29° 288° (WNW) 11:46:02 145.822/145.860
VERMONT LUNAR 02 Jul 11:49:23 11:52:30 55° 358° (N) 11:55:37 437.305
BUGSAT 1 02 Jul 11:56:58 12:00:57 41° 73° (ENE) 12:04:56 437.445
FUNcube-1 02 Jul 11:57:39 12:01:49 65° 284° (WNW) 12:06:02 145.935
ESTCUBE 1 02 Jul 11:58:15 12:00:39 15° 90° (E) 12:03:16 437.505/2401.250
HUMSAT D 02 Jul 11:59:59 12:04:03 55° 99° (E) 12:08:10 437.325/437.525
QB50P2 02 Jul 12:00:23 12:04:37 75° 76° (ENE) 12:08:52 145.880/145.840
POPSAT HIP 1 02 Jul 12:01:46 12:06:00 75° 76° (ENE) 12:10:15 437.405
CUBEBUG 1 02 Jul 12:01:48 12:03:33 12° 90° (E) 12:05:32 437.445
UWE-3 02 Jul 12:03:32 12:07:30 41° 287° (WNW) 12:11:30 435.000/436.395/437.385
COMPASS 1 02 Jul 12:03:57 12:05:55 13° 294° (WNW) 12:07:41 437.405
ANTELSAT 02 Jul 12:09:08 12:13:07 35° 263° (W) 12:17:02 437.575/2403.000
DELFI C3 02 Jul 12:11:19 12:15:01 34° 288° (WNW) 12:18:41 145.870
TIGRISAT 02 Jul 12:23:04 12:26:43 26° 265° (W) 12:30:15 435.000
VELOX 1 02 Jul 12:24:04 12:28:17 42° 99° (E) 12:32:28 145.980
50 SAT 02 Jul 12:31:30 12:35:23 65° 101° (E) 12:39:17 437.505
QB50P1 02 Jul 12:41:28 12:45:25 36° 263° (W) 12:49:21 145.935-145.965
DX 1 02 Jul 12:43:00 12:47:17 59° 286° (WNW) 12:51:32 434.975-435.025
HO-68 02 Jul 12:44:58 12:48:12 13° 305° (NW) 12:51:00 435.675
CUBEBUG 2 02 Jul 12:45:33 12:47:22 12° 293° (WNW) 12:48:59 437.445
NANOSAT C BR1 02 Jul 12:57:12 13:00:44 25° 265° (W) 13:04:13 145.865
ZACube-1 02 Jul 12:58:09 13:00:30 14° 293° (WNW) 13:02:42 437.345
DUCHIFAT 1 02 Jul 13:05:22 13:08:38 21° 266° (W) 13:11:48 145.980
POLYITAN 1 02 Jul 13:07:29 13:10:34 19° 267° (W) 13:13:33 437.675
Oscar 19 02 Jul 13:07:44 13:10:41 16° 64° (ENE) 13:13:50 437.125/150
UKube-1 02 Jul 13:08:00 13:11:56 34° 289° (WNW) 13:15:48 .
PHONESAT 2.4 02 Jul 13:08:27 13:11:52 60° 356° (N) 13:15:19 2401.200-2431.200
AISAT 02 Jul 13:10:18 13:14:37 53° 286° (WNW) 13:18:53 437.250
SPROUT 02 Jul 13:12:02 13:15:19 22° 94° (E) 13:18:41 437.525
Cosmos 2499 02 Jul 13:19:04 13:25:32 36° 287° (WNW) 13:31:56 435.465 / 435.565
VERMONT LUNAR 02 Jul 13:26:24 13:29:34 89° 9° (N) 13:32:46 437.305
ESTCUBE 1 02 Jul 13:33:28 13:37:52 48° 287° (WNW) 13:42:13 437.505/2401.250
BUGSAT 1 02 Jul 13:34:03 13:36:38 15° 269° (W) 13:39:02 437.445
RS-15 02 Jul 13:34:11 13:45:54 73° 243° (WSW) 13:58:00 29.354- 29.394
CUBEBUG 1 02 Jul 13:36:02 13:40:18 52° 286° (WNW) 13:44:30 437.445
HUMSAT D 02 Jul 13:37:44 13:39:24 12° 294° (WNW) 13:40:52 437.325/437.525
VELOX 1 02 Jul 14:01:38 14:04:31 17° 293° (WNW) 14:07:13 145.980
TISAT 1 02 Jul 14:02:45 14:06:52 55° 100° (E) 14:10:57 437.305
ISS 02 Jul 14:27:34 14:27:53 10° 12° (NNE) 14:28:16 145.825
Gurwin Techsat 1B 02 Jul 14:31:31 14:36:00 29° 68° (ENE) 14:40:35 435.225
Oscar 19 02 Jul 14:44:30 14:49:36 60° 259° (W) 14:54:41 437.125/150
PHONESAT 2.4 02 Jul 14:46:35 14:50:04 79° 12° (NNE) 14:53:33 2401.200-2431.200
SPROUT 02 Jul 14:47:43 14:51:26 28° 289° (WNW) 14:55:03 437.525
ITAMSAT 1 02 Jul 14:50:57 14:55:50 43° 71° (ENE) 15:00:47 435.822/435.867
BEESAT 02 Jul 14:57:36 15:01:56 34° 97° (E) 15:06:17 436.000
VERMONT LUNAR 02 Jul 15:03:43 15:06:18 22° 210° (SSW) 15:08:51 437.305
AO-7 02 Jul 15:03:48 15:09:18 21° 55° (NE) 15:15:09 29.400- 29.500
YUBILEINY 02 Jul 15:04:38 15:12:37 39° 73° (ENE) 15:20:44 435.215
SWISSCUBE 02 Jul 15:12:34 15:17:17 53° 100° (E) 15:21:58 437.505
ITUPSAT 1 02 Jul 15:16:42 15:21:26 53° 100° (E) 15:26:08 437.325
Cosmos 2491 02 Jul 15:24:19 15:31:05 27° 84° (E) 15:38:09 435.465 / 435.565
TISAT 1 02 Jul 15:40:29 15:42:12 12° 294° (WNW) 15:43:44 437.305
JAS-2 02 Jul 15:42:02 15:46:30 31° 69° (ENE) 15:51:10 435.910
PCSat 02 Jul 15:42:26 15:42:52 10° 104° (ESE) 15:43:43 145.827
RS-15 02 Jul 15:50:32 15:56:50 15° 260° (W) 16:02:05 29.354- 29.394
ISS 02 Jul 16:02:07 16:05:05 33° 32° (NNE) 16:08:04 145.825
Gurwin Techsat 1B 02 Jul 16:11:08 16:15:55 33° 264° (W) 16:20:39 435.225
STARS 02 Jul 16:11:20 16:14:27 20° 93° (E) 16:17:43 437.465
PHONESAT 2.4 02 Jul 16:24:49 16:27:56 30° 208° (SSW) 16:31:03 2401.200-2431.200
ITAMSAT 1 02 Jul 16:31:33 16:35:34 21° 267° (W) 16:39:27 435.822/435.867
BEESAT 02 Jul 16:35:45 16:39:37 24° 292° (WNW) 16:43:22 436.000
AIST 1 02 Jul 16:38:20 16:42:30 45° 93° (E) 16:46:44
HORYU 2 02 Jul 16:46:08 16:50:33 88° 77° (ENE) 16:54:59 437.375
KKS-1 02 Jul 16:48:58 16:53:25 90° 284° (WNW) 16:57:51 437.445
SWISSCUBE 02 Jul 16:51:45 16:54:44 16° 295° (WNW) 16:57:32 437.505
AO-7 02 Jul 16:52:49 17:01:10 89° 257° (WSW) 17:09:36 29.400- 29.500
ITUPSAT 1 02 Jul 16:55:54 16:58:56 16° 295° (WNW) 17:01:45 437.325
Cosmos 2504 02 Jul 16:59:36 17:05:13 22° 68° (ENE) 17:11:26 435.465 / 435.565
YUBILEINY 02 Jul 17:01:25 17:09:33 43° 271° (W) 17:17:35 435.215
Cosmos 2491 02 Jul 17:18:40 17:27:24 62° 282° (WNW) 17:36:07 435.465 / 435.565
PCSat 02 Jul 17:20:12 17:25:37 90° 267° (W) 17:31:05 145.827
JAS-2 02 Jul 17:27:21 17:31:44 27° 266° (W) 17:36:06 435.910
AIST 2 02 Jul 17:28:25 17:29:11 10° 40° (NE) 17:30:08 435.215
ISS 02 Jul 17:38:43 17:41:24 24° 227° (SW) 17:44:02 145.825
Cubesat XI-IV 02 Jul 17:45:52 17:48:08 13° 62° (ENE) 17:50:42 437.490
STARS 02 Jul 17:47:03 17:51:01 33° 289° (WNW) 17:54:55 437.465
SO-50 02 Jul 17:49:13 17:53:31 38° 115° (ESE) 17:58:01 436.795
BEESAT 3 02 Jul 17:51:14 17:55:18 74° 58° (ENE) 17:59:17 437.485
BEESAT 2 02 Jul 18:00:16 18:04:21 72° 59° (ENE) 18:08:21 435.950
O/OREOS (USA 219) 02 Jul 18:02:27 18:06:04 24° 59° (ENE) 18:09:46 437.305
AIST 1 02 Jul 18:17:59 18:20:29 14° 290° (WNW) 18:22:48
MOZHAYETS 4 02 Jul 18:26:38 18:31:18 80° 282° (WNW) 18:35:57
CUTE-I 02 Jul 18:48:59 18:54:07 50° 72° (ENE) 18:59:20 437.470
CUBESAT XI-V 02 Jul 18:49:03 18:51:11 13° 89° (E) 18:53:34 437.345
AO-7 02 Jul 18:50:07 18:55:12 16° 272° (W) 18:59:44 29.400- 29.500
Cosmos 2504 02 Jul 18:51:38 18:59:18 69° 266° (W) 19:07:30 435.465 / 435.565
AIST 2 02 Jul 19:04:16 19:08:29 86° 58° (ENE) 19:12:37 435.215
PCSat 02 Jul 19:06:49 19:09:54 15° 317° (NW) 19:12:46 145.827
JUGNU 02 Jul 19:19:09 19:21:09 12° 176° (S) 19:23:12 437.505
BRITE-PL 02 Jul 19:22:11 19:24:06 12° 65° (ENE) 19:26:17 437.365/2234.400
Cubesat XI-IV 02 Jul 19:22:16 19:27:37 80° 256° (WSW) 19:33:03 437.490
Cosmos 2491 02 Jul 19:24:41 19:26:37 10° 305° (NW) 19:27:46 435.465 / 435.565
SO-50 02 Jul 19:30:08 19:34:11 26° 313° (NW) 19:38:16 436.795
HO-68 02 Jul 19:38:06 19:41:05 14° 55° (NE) 19:44:29 435.675
CUSAT 1 02 Jul 19:40:10 19:41:42 14° 71° (ENE) 19:43:17 437.405
O/OREOS (USA 219) 02 Jul 19:41:31 19:45:32 31° 255° (WSW) 19:49:30 437.305
GONETS M04 02 Jul 19:42:37 19:46:37 14° 59° (ENE) 19:51:15
PRISM 02 Jul 19:57:34 20:00:39 20° 94° (E) 20:03:49 437.425
CUBESAT XI-V 02 Jul 20:24:27 20:29:03 55° 286° (WNW) 20:33:36 437.345
STRAND 1 02 Jul 20:28:17 20:33:17 50° 99° (E) 20:38:16 437.568
DANDE 02 Jul 20:28:36 20:31:27 51° 78° (ENE) 20:33:59 436.750
CUTE-I 02 Jul 20:30:41 20:34:33 19° 268° (W) 20:38:14 437.470
SEEDS 02 Jul 20:37:36 20:39:35 14° 67° (ENE) 20:41:46 437.485
GOMX 1 02 Jul 20:43:15 20:48:10 43° 73° (ENE) 20:52:51 467.674
AAUSAT CUBESAT 2 02 Jul 20:53:54 20:55:56 14° 67° (ENE) 20:58:10 437.432
BRITE-PL 02 Jul 20:56:29 21:02:05 87° 254° (WSW) 21:07:23 437.365/2234.400
CINEMA 3 02 Jul 21:02:56 21:05:54 18° 69° (ENE) 21:08:57 145.822/145.860
JUGNU 02 Jul 21:07:34 21:09:19 11° 186° (S) 21:10:59 437.505
M-CUBED/EXP-1 PRIME 02 Jul 21:13:22 21:13:36 10° 95° (E) 21:14:08 437.505
COMPASS 1 02 Jul 21:16:31 21:20:04 29° 71° (ENE) 21:23:43 437.405
CUTE 1.7 + AOD 2 02 Jul 21:19:19 21:23:22 50° 74° (ENE) 21:27:29 437.475
Cosmos 2499 02 Jul 21:20:36 21:22:16 11° 59° (ENE) 21:24:37 435.465 / 435.565
HO-68 02 Jul 21:20:40 21:27:47 74° 72° (ENE) 21:34:56 435.675
CANX-2 02 Jul 21:22:16 21:26:24 61° 76° (ENE) 21:30:35 2200.000
UWE-3 02 Jul 21:26:08 21:27:02 11° 66° (ENE) 21:28:10 435.000/436.395/437.385
PRISM 02 Jul 21:32:26 21:36:09 30° 289° (WNW) 21:39:46 437.425
GONETS M04 02 Jul 21:36:33 21:45:16 78° 81° (E) 21:53:58
DOVE 4 02 Jul 21:37:19 21:42:18 86° 258° (WSW) 21:47:02 437.250
SRMSAT 02 Jul 21:55:18 21:57:30 12° 181° (S) 21:59:42 437.500
CUBEBUG 2 02 Jul 22:03:52 22:07:50 37° 73° (ENE) 22:11:46 437.445
STRAND 1 02 Jul 22:08:30 22:12:09 19° 295° (WNW) 22:15:36 437.568
SEEDS 02 Jul 22:10:59 22:15:00 47° 261° (W) 22:19:04 437.485
AUBIESAT-1 02 Jul 22:12:22 22:16:24 43° 104° (ESE) 22:20:42 437.475
ZACube-1 02 Jul 22:15:17 22:18:56 30° 72° (ENE) 22:22:37 437.345
GOMX 1 02 Jul 22:22:30 22:26:26 21° 267° (W) 22:30:05 467.674
UKube-1 02 Jul 22:26:57 22:29:16 15° 66° (ENE) 22:31:46 .
AAUSAT CUBESAT 2 02 Jul 22:27:14 22:31:12 45° 261° (W) 22:35:12 437.432
Oscar 11 02 Jul 22:27:53 22:32:09 76° 76° (ENE) 22:36:28 145.826/435.025
AISAT 02 Jul 22:33:46 22:34:33 11° 64° (ENE) 22:35:37 437.250
CINEMA 3 02 Jul 22:38:34 22:42:54 40° 262° (W) 22:47:02 145.822/145.860
M-CUBED/EXP-1 PRIME 02 Jul 22:44:35 22:48:45 69° 289° (WNW) 22:53:14 437.505
HUMSAT D 02 Jul 22:50:33 22:54:09 31° 72° (ENE) 22:57:48 437.325/437.525
FUNcube-1 02 Jul 22:51:43 22:55:57 79° 77° (ENE) 23:00:08 145.935
COMPASS 1 02 Jul 22:52:39 22:55:47 20° 267° (W) 22:58:51 437.405
DELFI C3 02 Jul 22:56:25 23:00:24 70° 259° (W) 23:04:25 145.870
ESTCUBE 1 02 Jul 22:57:37 22:59:20 12° 65° (ENE) 23:01:17 437.505/2401.250
CUTE 1.7 + AOD 2 02 Jul 22:57:55 22:59:40 12° 271° (W) 23:01:11 437.475
UWE-3 02 Jul 22:58:53 23:03:09 63° 260° (W) 23:07:19 435.000/436.395/437.385
Cosmos 2499 02 Jul 23:09:17 23:17:04 68° 80° (E) 23:25:29 435.465 / 435.565
HO-68 02 Jul 23:11:23 23:16:17 19° 270° (W) 23:20:50 435.675
50 SAT 02 Jul 23:14:31 23:17:47 28° 72° (ENE) 23:21:06 437.505
UNISAT 6 02 Jul 23:18:37 23:21:15 16° 92° (E) 23:24:06 437.425
VELOX 1 02 Jul 23:20:14 23:24:11 32° 71° (ENE) 23:28:13 145.980
GONETS M04 02 Jul 23:35:20 23:41:16 20° 278° (W) 23:46:42
DX 1 02 Jul 23:36:41 23:41:05 84° 257° (WSW) 23:45:30 434.975-435.025
CUBEBUG 2 02 Jul 23:41:50 23:44:42 17° 268° (W) 23:47:23 437.445
AUBIESAT-1 02 Jul 23:48:03 23:50:54 17° 296° (WNW) 23:53:44 437.475
QB50P2 02 Jul 23:48:52 23:50:52 13° 90° (E) 23:53:04 145.880/145.840
POPSAT HIP 1 02 Jul 23:50:09 23:52:05 13° 90° (E) 23:54:15 437.405
ZACube-1 02 Jul 23:52:09 23:55:22 20° 266° (W) 23:58:26 437.345
UKube-1 03 Jul 00:00:50 00:05:02 48° 260° (W) 00:09:16 .
ANTELSAT 03 Jul 00:01:49 00:06:05 49° 99° (E) 00:10:26 437.575/2403.000
SPROUT 03 Jul 00:05:43 00:08:09 15° 67° (ENE) 00:10:46 437.525
AISAT 03 Jul 00:06:07 00:10:36 74° 258° (WSW) 00:15:05 437.250
TIGRISAT 03 Jul 00:15:00 00:19:21 68° 100° (E) 00:23:47 435.000
HUMSAT D 03 Jul 00:27:01 00:29:59 18° 267° (W) 00:32:49 437.325/437.525
QB50P1 03 Jul 00:27:50 00:31:45 37° 98° (E) 00:35:40 145.935-145.965
CUBEBUG 1 03 Jul 00:30:09 00:34:36 77° 259° (W) 00:39:03 437.445
ESTCUBE 1 03 Jul 00:31:12 00:35:42 64° 259° (W) 00:40:14 437.505/2401.250
NANOSAT C BR1 03 Jul 00:42:40 00:46:48 56° 100° (E) 00:50:55 145.865
50 SAT 03 Jul 00:49:46 00:52:28 18° 267° (W) 00:55:03 437.505
DUCHIFAT 1 03 Jul 00:50:15 00:54:26 68° 102° (ESE) 00:58:35 145.980
POLYITAN 1 03 Jul 00:52:50 00:57:03 78° 102° (ESE) 01:01:15 437.675
TISAT 1 03 Jul 00:53:26 00:57:14 34° 72° (ENE) 01:01:05 437.305
UNISAT 6 03 Jul 00:54:07 00:58:16 41° 287° (WNW) 01:02:26 437.425
VELOX 1 03 Jul 00:57:21 01:00:49 21° 266° (W) 01:04:11 145.980
Cosmos 2499 03 Jul 01:03:48 01:09:43 22° 275° (W) 01:15:33 435.465 / 435.565
BUGSAT 1 03 Jul 01:15:46 01:19:51 89° 102° (ESE) 01:23:52 437.445
QB50P2 03 Jul 01:23:01 01:27:04 45° 287° (WNW) 01:31:04 145.880/145.840
POPSAT HIP 1 03 Jul 01:24:14 01:28:16 45° 287° (WNW) 01:32:16 437.405
Cosmos 2491 03 Jul 01:38:54 01:40:21 11° 55° (NE) 01:42:33 435.465 / 435.565
SPROUT 03 Jul 01:39:46 01:43:54 44° 261° (W) 01:48:03 437.525
ANTELSAT 03 Jul 01:40:02 01:42:32 15° 293° (WNW) 01:44:51 437.575/2403.000
RS-15 03 Jul 01:48:27 01:54:58 19° 102° (ESE) 02:02:19 29.354- 29.394
TIGRISAT 03 Jul 01:54:27 01:55:39 11° 295° (WNW) 01:56:35 435.000
BEESAT 03 Jul 02:02:42 02:06:56 33° 70° (ENE) 02:11:14 436.000
QB50P1 03 Jul 02:04:34 02:07:21 17° 292° (WNW) 02:10:00 145.935-145.965
PCSat 03 Jul 02:09:41 02:14:59 52° 58° (ENE) 02:20:15 145.827
SWISSCUBE 03 Jul 02:17:34 02:22:11 52° 73° (ENE) 02:26:51 437.505
NANOSAT C BR1 03 Jul 02:20:32 02:22:12 12° 294° (WNW) 02:23:40 145.865
ITUPSAT 1 03 Jul 02:21:58 02:26:35 51° 73° (ENE) 02:31:16 437.325
SO-50 03 Jul 02:22:09 02:26:17 26° 47° (NE) 02:30:27 436.795
TISAT 1 03 Jul 02:30:04 02:33:08 18° 267° (W) 02:36:02 437.305
Gurwin Techsat 1B 03 Jul 02:50:51 02:52:49 12° 88° (E) 02:55:07 435.225
Oscar 19 03 Jul 02:57:32 03:02:33 53° 100° (E) 03:07:33 437.125/150
ITAMSAT 1 03 Jul 03:06:25 03:09:39 17° 91° (E) 03:13:05 435.822/435.867
STARS 03 Jul 03:07:35 03:10:08 16° 67° (ENE) 03:12:51 437.465
